Weather observations for the past three days for
Sonny Callahan Airport
Imperial (Metric)
Date Time (cdt) Wind (mph) Vis. (mi.) Weather Sky Cond. Temperature (ºF) Relative Humidity Wind Chill (°F) Heat Index (°F) Pressure Precipitation (in)
Air Dwpt 6 hour altimeter (in) sea level (mb) 1 hr 3 hr 6 hr
Max. Min.
14 18:15 S 6 10.00 Fair CLR 86 75.2 70% 95 30.07 0.0
14 17:55 S 7 10.00 Fair CLR 86 75.2 70% 95 30.06 0.0
14 17:35 S 6 10.00 Fair CLR 0 0 0% 30.07 0.0
14 17:15 S 3 10.00 Fair CLR 86 77 75% 97 30.07 0.0
14 16:55 SW 3 10.00 Fair CLR 86 77 75% 97 30.07 0.0
14 16:35 S 7 10.00 Fair CLR 0 0 0% 30.08 0.0
14 16:15 S 7 10.00 Fair CLR 0 0 0% 30.08 0.0
14 15:55 S 6 10.00 Fair CLR 87.8 75.2 66% 98 30.08 0.0
14 15:35 S 6 10.00 Fair CLR 86 75.2 70% 95 30.08 0.0
14 15:15 S 8 10.00 Fair CLR 87.8 77 70% 100 30.09 0.0
14 14:55 S 8 10.00 Fair CLR 86 75.2 70% 95 30.09 0.0
14 14:35 S 7 10.00 Fair CLR 86 77 75% 97 30.1 0.0
14 14:15 S 6 10.00 Partly Cloudy SCT028 0 0 0% 30.11 0.0
14 13:55 S 7 10.00 Partly Cloudy SCT028 87.8 77 70% 100 30.11 0.0
14 13:35 S 5 10.00 Partly Cloudy SCT028 0 0 0% 30.12 0.0
14 13:15 SW 3 10.00 Fair CLR 89.6 78.8 71% 105 30.12 0.0
14 12:55 SW 3 10.00 Fair CLR 87.8 77 70% 100 30.14 0.0
14 12:35 SW 3 10.00 Partly Cloudy SCT023 87.8 77 70% 100 30.14 0.0
14 12:15 Calm 10.00 Partly Cloudy SCT023 0 0 0% 30.14 0.0
14 11:55 NW 3 10.00 Fair CLR 0 0 0% 30.14 0.0
14 11:35 Calm 10.00 Fair CLR 0 0 0% 30.15 0.0
14 11:15 Calm 10.00 Fair CLR 87.8 77 70% 100 30.15 0.0
14 10:55 Calm 10.00 Fair CLR 87.8 77 70% 100 30.16 0.0
14 10:35 Calm 10.00 Fair CLR 84.2 75.2 74% 92 30.17 0.0
14 10:15 Calm 10.00 Fair CLR 84.2 75.2 74% 92 30.17 0.0
14 09:55 Calm 10.00 Fair CLR 84.2 77 79% 94 30.17 0.0
14 09:35 Calm 10.00 Fair CLR 84.2 75.2 74% 92 30.17 0.0
14 09:15 Calm 10.00 Fair CLR 82.4 75.2 79% 89 30.17 0.0
14 08:55 Calm 10.00 Fair CLR 82.4 77 84% 91 30.16 0.0
14 08:35 Calm 10.00 Fair CLR 82.4 77 84% 91 30.16 0.0
14 08:15 Calm 10.00 Fair CLR 84.2 73.4 70% 91 30.16 0.0
14 07:55 S 5 10.00 Fair CLR 84.2 73.4 70% 91 30.16 0.0
14 07:35 E 3 10.00 Fair CLR 0 0 0% 30.16 0.0
14 07:15 S 3 10.00 Fair CLR 0 0 0% 30.15 0.0
14 06:55 Calm 10.00 Fair CLR 0 0 0% 30.14 0.0
14 06:35 Calm 10.00 Fair CLR 78.8 77 94% 83 30.14 0.0
14 06:15 Calm 7.00 Fair CLR 77 77 100% 78 30.13 0.0
14 05:55 Calm 7.00 Fair CLR 0 0 0% 30.13 0.0
14 05:35 Calm 5.00 Fair with Haze CLR 0 0 0% 30.12 0.0
14 05:15 Calm 10.00 Fair CLR 0 0 0% 30.12 0.0
14 04:55 Calm 7.00 Partly Cloudy SCT024 SCT041 0 0 0% 30.11 0.0
14 04:35 Calm 7.00 Mostly Cloudy BKN024 BKN041 0 0 0% 30.11 0.0
14 04:15 Calm 10.00 Mostly Cloudy BKN024 78.8 77 94% 83 30.11 0.0
14 03:55 Calm 10.00 Mostly Cloudy BKN024 77 77 100% 78 30.1 0.0
14 03:35 Calm 10.00 Partly Cloudy SCT024 0 0 0% 30.1 0.0
14 03:15 Calm 7.00 Partly Cloudy SCT024 0 0 0% 30.1 0.0
14 02:55 Calm 10.00 Partly Cloudy SCT024 0 0 0% 30.1 0.0
14 02:35 Calm 10.00 Partly Cloudy SCT022 0 0 0% 30.11 0.0
14 02:15 Calm 10.00 Fair CLR 78.8 77 94% 83 30.11 0.0
14 01:55 Calm 10.00 Partly Cloudy SCT020 0 0 0% 30.12 0.0
14 01:35 Calm 10.00 Partly Cloudy SCT019 0 0 0% 30.13 0.0
14 01:15 Calm 10.00 Partly Cloudy SCT019 0 0 0% 30.13 0.0
14 00:55 Calm 10.00 Fair CLR 0 0 0% 30.14 0.0
14 00:35 Calm 10.00 Fair CLR 0 0 0% 30.15 0.0
14 00:15 Calm 10.00 Partly Cloudy SCT019 0 0 0% 30.15 0.0
13 23:55 Calm 10.00 Partly Cloudy SCT019 0 0 0% 30.15 0.0
13 23:35 Calm 10.00 Partly Cloudy SCT019 0 0 0% 30.16 0.0
13 23:15 Calm 10.00 Partly Cloudy SCT019 0 0 0% 30.16 0.0
13 22:55 Calm 10.00 Partly Cloudy SCT019 0 0 0% 30.16 0.0
13 22:35 Calm 10.00 Partly Cloudy SCT019 0 0 0% 30.17 0.0
13 22:15 Calm 10.00 Fair CLR 0 0 0% 30.17 0.0
13 21:55 Calm 10.00 Fair CLR 0 0 0% 30.17 0.0
13 21:35 Calm 10.00 Fair CLR 0 0 0% 30.16 0.0
13 21:15 Calm 10.00 Fair CLR 80.6 75.2 84% 86 30.16 0.0
13 20:55 Calm 10.00 Fair CLR 80.6 75.2 84% 86 30.16 0.0
13 20:35 Calm 10.00 Fair CLR 82.4 75.2 79% 89 30.15 0.0
13 20:15 Calm 10.00 Partly Cloudy SCT003 82.4 75.2 79% 89 30.15 0.0
13 19:55 Calm 10.00 Fair CLR 82.4 75.2 79% 89 30.14 0.0
13 19:35 Calm 10.00 Fair CLR 82.4 77 84% 91 30.14 0.0
13 19:15 Calm 10.00 Fair CLR 84.2 77 79% 94 30.13 0.0
13 18:35 S 3 10.00 Fair CLR 86 77 75% 97 30.14 0.0
13 18:15 SW 3 10.00 Fair CLR 86 75.2 70% 95 30.14 0.0
13 17:55 SW 3 10.00 Partly Cloudy SCT021 SCT027 87.8 77 70% 100 30.14 0.0
13 17:35 S 6 10.00 Partly Cloudy SCT021 SCT031 86 77 75% 97 30.14 0.0
13 17:15 S 6 10.00 Partly Cloudy SCT021 87.8 77 70% 100 30.14 0.0
13 16:55 S 8 10.00 Partly Cloudy SCT021 87.8 77 70% 100 30.14 0.0
13 16:35 S 8 10.00 Partly Cloudy SCT021 86 77 75% 97 30.14 0.0
13 16:15 S 6 10.00 Partly Cloudy SCT023 SCT028 86 78.8 79% 99 30.14 0.0
13 15:55 S 5 10.00 Partly Cloudy SCT024 87.8 77 70% 100 30.14 0.0
13 15:35 SE 7 10.00 Fair CLR 87.8 75.2 66% 98 30.14 0.0
13 15:15 E 7 10.00 Partly Cloudy SCT030 SCT038 87.8 75.2 66% 98 30.15 0.0
13 14:55 E 6 10.00 Mostly Cloudy BKN030 BKN038 86 73.4 66% 93 30.16 0.0
13 14:35 SE 12 10.00 Mostly Cloudy SCT030 BKN040 89.6 75.2 63% 100 30.17 0.0
13 14:15 S 6 10.00 Partly Cloudy SCT040 0 0 0% 30.17 0.0
13 13:55 W 3 10.00 Fair CLR 89.6 75.2 63% 100 30.17 0.0
13 13:35 SW 5 10.00 Partly Cloudy SCT037 89.6 73.4 59% 98 30.17 0.0
13 13:15 W 3 10.00 Partly Cloudy SCT037 0 0 0% 30.17 0.0
13 12:55 Calm 10.00 Partly Cloudy SCT039 SCT045 0 0 0% 30.18 0.0
13 12:35 SE 3 10.00 Partly Cloudy SCT039 SCT045 0 0 0% 30.18 0.0
13 12:15 Calm 10.00 Fair CLR 0 0 0% 30.19 0.0
13 11:55 Calm 10.00 Fair CLR 87.8 73.4 62% 96 30.19 0.0
13 11:35 Calm 10.00 Fair CLR 87.8 73.4 62% 96 30.19 0.0
13 11:15 NW 3 10.00 Partly Cloudy SCT022 SCT028 SCT034 86 75.2 70% 95 30.19 0.0
13 10:55 NW 3 10.00 Partly Cloudy SCT022 SCT028 SCT034 87.8 75.2 66% 98 30.19 0.0
13 10:35 NW 5 10.00 Partly Cloudy SCT020 86 77 75% 97 30.2 0.0
13 10:15 NW 5 10.00 Partly Cloudy SCT019 SCT026 SCT031 0 0 0% 30.19 0.0
13 09:55 NW 3 10.00 Fair CLR 84.2 77 79% 94 30.19 0.0
13 09:35 Calm 10.00 Partly Cloudy SCT016 86 77 75% 97 30.19 0.0
13 09:15 NW 3 10.00 Partly Cloudy SCT016 SCT024 86 77 75% 97 30.19 0.0
13 08:55 Calm 10.00 Partly Cloudy SCT025 SCT033 SCT039 0 0 0% 30.19 0.0
13 08:35 Calm 10.00 Partly Cloudy SCT033 SCT039 0 0 0% 30.19 0.0
13 08:15 Calm 10.00 Fair CLR 0 0 0% 30.19 0.0
13 07:55 Calm 10.00 Partly Cloudy SCT019 SCT028 SCT043 0 0 0% 30.18 0.0 0.02
13 07:35 Calm 10.00 Overcast BKN019 OVC027 0 0 0% 30.17 0.0
13 07:15 Calm 10.00 Overcast BKN019 OVC025 0 0 0% 30.17 0.0
13 06:55 Calm 5.00 Rain OVC019 0 0 0% 30.17 0.0
13 06:35 Calm 10.00 Mostly Cloudy BKN023 77 75.2 94% 78 30.16 0.0
13 06:15 Calm 7.00 Partly Cloudy SCT023 0 0 0% 30.15 0.0
13 05:55 Calm 7.00 Fair CLR 75.2 73.4 94% 74 30.15 0.0
13 05:35 Calm 10.00 Fair CLR 0 0 0% 30.14 0.0
13 05:15 Calm 10.00 Fair CLR 0 0 0% 30.13 0.0
13 04:55 Calm 7.00 Fair CLR 0 0 0% 30.12 0.0
13 04:35 Calm 7.00 Partly Cloudy SCT025 SCT032 SCT040 0 0 0% 30.12 0.0
13 04:15 Calm 7.00 Partly Cloudy SCT032 0 0 0% 30.12 0.0
13 03:55 Calm 10.00 Partly Cloudy SCT032 0 0 0% 30.11 0.0
13 03:35 Calm 10.00 Fair CLR 0 0 0% 30.11 0.0
13 03:15 Calm 10.00 Fair CLR 0 0 0% 30.1 0.0
13 02:55 Calm 10.00 Fair CLR 75.2 73.4 94% 74 30.1 0.0
13 02:35 Calm 7.00 Fair CLR 77 73.4 89% 78 30.1 0.0
13 02:15 Calm 10.00 Fair CLR 77 75.2 94% 78 30.1 0.0
13 01:55 Calm 10.00 Fair CLR 0 0 0% 30.11 0.0
13 01:35 Calm 10.00 Fair CLR 0 0 0% 30.11 0.0
13 01:15 Calm 10.00 Fair CLR 0 0 0% 30.11 0.0
13 00:55 Calm 10.00 Fair CLR 0 0 0% 30.11 0.0
13 00:35 Calm 10.00 Fair CLR 0 0 0% 30.11 0.0
13 00:15 Calm 10.00 Fair CLR 0 0 0% 30.11 0.0
12 23:55 Calm 10.00 Fair CLR 0 0 0% 30.12 0.0
12 23:35 Calm 10.00 Fair CLR 0 0 0% 30.12 0.0
12 23:15 Calm 10.00 Fair CLR 0 0 0% 30.12 0.0
12 22:55 Calm 10.00 Fair CLR 0 0 0% 30.12 0.0
12 22:35 Calm 10.00 Partly Cloudy SCT095 0 0 0% 30.13 0.0
12 22:15 Calm 10.00 Partly Cloudy SCT095 0 0 0% 30.13 0.0
12 21:55 Calm 10.00 Fair CLR 0 0 0% 30.13 0.0
12 21:35 Calm 10.00 Partly Cloudy SCT033 0 0 0% 30.12 0.0
12 21:15 Calm 10.00 Partly Cloudy SCT028 SCT033 0 0 0% 30.12 0.0
12 20:55 Calm 10.00 Partly Cloudy SCT028 78.8 73.4 84% 82 30.11 0.0
12 20:35 Calm 10.00 Fair CLR 80.6 73.4 79% 85 30.11 0.0
12 20:15 Calm 10.00 Fair CLR 80.6 73.4 79% 85 30.11 0.0
12 19:55 Calm 10.00 Fair CLR 82.4 73.4 74% 88 30.1 0.0
12 19:35 Calm 10.00 Partly Cloudy SCT090 82.4 75.2 79% 89 30.1 0.0
12 19:15 Calm 10.00 Partly Cloudy SCT090 SCT110 86 73.4 66% 93 30.1 0.0
12 18:55 Calm 10.00 Mostly Cloudy BKN110 86 73.4 66% 93 30.09 0.0
12 18:35 SW 3 10.00 Overcast OVC110 0 0 0% 30.08 0.0
12 18:15 Calm 10.00 Partly Cloudy SCT110 86 75.2 70% 95 30.07 0.0
12 17:55 SW 3 10.00 Fair CLR 87.8 73.4 62% 96 30.06 0.0
12 17:35 SW 5 10.00 Fair CLR 87.8 73.4 62% 96 30.07 0.0
12 17:15 SW 3 10.00 Partly Cloudy SCT110 87.8 73.4 62% 96 30.06 0.0
12 16:55 SW 6 10.00 Mostly Cloudy BKN110 87.8 73.4 62% 96 30.06 0.0
12 16:35 SW 3 10.00 Partly Cloudy SCT110 86 73.4 66% 93 30.06 0.0
12 16:15 SW 3 10.00 Fair CLR 87.8 73.4 62% 96 30.06 0.0
12 15:55 SW 3 10.00 Partly Cloudy SCT110 86 73.4 66% 93 30.06 0.0
12 15:35 SW 3 10.00 Fair CLR 0 0 0% 30.06 0.0
12 15:15 SW 5 10.00 Fair CLR 87.8 73.4 62% 96 30.06 0.0
12 14:55 SW 5 10.00 Fair CLR 0 0 0% 30.07 0.0
12 14:35 SW 3 10.00 Fair CLR 87.8 75.2 66% 98 30.08 0.0
12 14:15 W 5 10.00 Partly Cloudy SCT100 86 77 75% 97 30.09 0.0
12 13:55 W 5 10.00 Partly Cloudy SCT100 84.2 75.2 74% 92 30.09 0.0
12 13:35 SW 5 10.00 Fair CLR 86 73.4 66% 93 30.1 0.0
12 13:15 SW 3 10.00 Fair CLR 86 71.6 62% 92 30.11 0.0
12 12:55 W 5 10.00 Fair CLR 0 0 0% 30.11 0.0
12 12:35 NW 3 10.00 Fair CLR 89.6 68 49% 93 30.11 0.0
12 12:15 Calm 10.00 Fair CLR 87.8 69.8 55% 93 30.11 0.0
12 11:55 NW 5 10.00 Fair CLR 0 0 0% 30.11 0.0
12 11:35 NW 5 10.00 Fair CLR 0 0 0% 30.11 0.0
12 11:15 Calm 10.00 Fair CLR 87.8 68 52% 91 30.11 0.0
12 10:55 Calm 10.00 Fair CLR 86 69.8 59% 91 30.11 0.0
12 10:35 NW 3 10.00 Fair CLR 86 73.4 66% 93 30.11 0.0
12 10:15 NW 3 10.00 Fair CLR 86 75.2 70% 95 30.1 0.0
12 09:55 NW 3 10.00 Fair CLR 86 75.2 70% 95 30.1 0.0
12 09:35 Calm 10.00 Fair CLR 86 73.4 66% 93 30.09 0.0
12 09:15 NW 3 10.00 Fair CLR 84.2 75.2 74% 92 30.09 0.0
12 08:55 N 3 10.00 Fair CLR 82.4 77 84% 91 30.09 0.0
12 08:35 W 5 10.00 Fair CLR 82.4 77 84% 91 30.09 0.0
12 08:15 NW 3 10.00 Fair CLR 82.4 77 84% 91 30.08 0.0
12 07:55 Calm 10.00 Fair CLR 80.6 77 89% 87 30.08 0.0
12 07:35 NW 3 10.00 Fair CLR 0 0 0% 30.07 0.0
12 07:15 Calm 10.00 Fair CLR 0 0 0% 30.06 0.0
12 06:55 Calm 10.00 Fair CLR 0 0 0% 30.06 0.0
12 06:35 Calm 10.00 Fair CLR 73.4 73.4 100% 30.06 0.0
12 06:15 Calm 10.00 Fair CLR 73.4 73.4 100% 30.05 0.0
12 05:55 Calm 10.00 Fair CLR 73.4 73.4 100% 30.05 0.0
12 05:35 Calm 10.00 Fair CLR 0 0 0% 30.04 0.0
12 05:15 Calm 10.00 Fair CLR 0 0 0% 30.04 0.0
12 04:55 Calm 10.00 Fair CLR 0 0 0% 30.04 0.0
12 04:35 Calm 10.00 Partly Cloudy SCT090 0 0 0% 30.03 0.0
12 04:15 Calm 10.00 Mostly Cloudy BKN090 0 0 0% 30.03 0.0
12 03:55 Calm 10.00 Overcast OVC090 75.2 73.4 94% 74 30.03 0.0
12 03:35 Calm 10.00 Partly Cloudy SCT090 0 0 0% 30.03 0.0
12 03:15 Calm 10.00 Fair CLR 0 0 0% 30.02 0.0
12 02:55 Calm 10.00 Fair CLR 0 0 0% 30.02 0.0
12 02:35 Calm 10.00 Fair CLR 0 0 0% 30.02 0.0
12 02:15 Calm 10.00 Fair CLR 73.4 73.4 100% 30.02 0.0
12 01:55 Calm 10.00 Fair CLR 0 0 0% 30.01 0.0
12 01:35 Calm 10.00 Fair CLR 73.4 73.4 100% 30.01 0.0
12 01:15 Calm 10.00 Fair CLR 73.4 73.4 100% 30.02 0.0
12 00:55 Calm 10.00 Fair CLR 0 0 0% 30.02 0.0
12 00:35 Calm 10.00 Fair CLR 0 0 0% 30.03 0.0
12 00:15 Calm 10.00 Fair CLR 0 0 0% 30.03 0.0
11 23:55 Calm 10.00 Fair CLR 0 0 0% 30.03 0.0
11 23:35 Calm 10.00 Fair CLR 0 0 0% 30.04 0.0
11 23:15 Calm 10.00 Fair CLR 0 0 0% 30.04 0.0
11 22:55 Calm 10.00 Fair CLR 77 73.4 89% 78 30.04 0.0
11 22:35 Calm 10.00 Fair CLR 77 71.6 83% 78 30.03 0.0
11 22:15 Calm 10.00 Fair CLR 78.8 71.6 79% 82 30.03 0.0
11 21:55 Calm 10.00 Fair CLR 78.8 71.6 79% 82 30.02 0.0
11 21:35 Calm 10.00 Fair CLR 78.8 71.6 79% 82 30.02 0.0
11 21:15 Calm 10.00 Fair CLR 78.8 71.6 79% 82 30.02 0.0
11 20:55 Calm 10.00 Fair CLR 78.8 71.6 79% 82 30.02 0.0
11 20:35 Calm 10.00 Fair CLR 78.8 71.6 79% 82 30.02 0.0
11 20:15 Calm 10.00 Fair CLR 80.6 71.6 74% 85 30.02 0.0
11 19:55 Calm 10.00 Fair CLR 82.4 71.6 70% 87 30.02 0.0
11 19:35 Calm 10.00 Fair CLR 82.4 71.6 70% 87 30.01 0.0
11 19:15 SW 3 10.00 Fair CLR 84.2 71.6 66% 90 30.01 0.0
11 18:55 SW 3 10.00 Fair CLR 86 71.6 62% 92 30.01 0.0
11 18:35 Calm 10.00 Fair CLR 86 69.8 59% 91 30.01 0.0
Date Time (cdt) Wind (mph) Vis. (mi.) Weather Sky Cond. Air Dwpt Max. Min. Relative Humidity Wind Chill (°F) Heat Index (°F) altimeter (in) sea level (mb) 1 hr 3 hr 6 hr
6 hour
Temperature (ºF) Pressure Precipitation (in)